ETD555 OMAA-OERK

Flight info

Callsign ETD555
Flight time 1h 31m
Altitude 38000
Route DAXIB Q563 IMGUX P699 RIKET A453 KUKDA P699 ASTAD A453 BHR M556 NARMI N112 GETOT DCT KSA
Aircraft A20N/M-SDE2E3FGHIRWXY/LB1

Departure

Time 2026-04-27 11:24
Airport Zayed International Airport (OMAA)

Arrival

Time 2026-04-27 12:55
Airport King Khalid International Airport (OERK)
Time Latitude Longitude Altitude Speed Heading
2026-04-27 10:52 24.42845 54.64801 51 ft 0 kts 239°
2026-04-27 11:12 24.42851 54.64811 53 ft 3 kts 240°
2026-04-27 11:12 24.42862 54.64831 50 ft 3 kts 238°
2026-04-27 11:12 24.42873 54.64851 53 ft 3 kts 236°
2026-04-27 11:12 24.42885 54.64871 50 ft 3 kts 235°
2026-04-27 11:13 24.42896 54.64886 50 ft 3 kts 224°
2026-04-27 11:13 24.42913 54.64900 50 ft 3 kts 212°
2026-04-27 11:13 24.42922 54.64906 55 ft 1 kts 212°
2026-04-27 11:15 24.42932 54.64912 52 ft 2 kts 188°
2026-04-27 11:15 24.42944 54.64912 57 ft 2 kts 155°
2026-04-27 11:15 24.42947 54.64911 56 ft 0 kts 147°
2026-04-27 11:17 24.42937 54.64918 52 ft 3 kts 146°
2026-04-27 11:17 24.42909 54.64943 59 ft 7 kts 136°
2026-04-27 11:18 24.42888 54.64998 58 ft 10 kts 95°
2026-04-27 11:18 24.42909 54.65070 53 ft 11 kts 51°
2026-04-27 11:18 24.42953 54.65146 56 ft 13 kts 75°
2026-04-27 11:18 24.42928 54.65249 54 ft 16 kts 127°
2026-04-27 11:19 24.42855 54.65354 52 ft 19 kts 127°
2026-04-27 11:19 24.42783 54.65459 52 ft 18 kts 127°
2026-04-27 11:19 24.42700 54.65580 56 ft 21 kts 127°
2026-04-27 11:19 24.42604 54.65717 57 ft 24 kts 129°
2026-04-27 11:20 24.42492 54.65864 50 ft 26 kts 127°
2026-04-27 11:20 24.42374 54.66029 54 ft 29 kts 128°
2026-04-27 11:20 24.42247 54.66207 53 ft 31 kts 128°
2026-04-27 11:20 24.42142 54.66358 55 ft 20 kts 129°
2026-04-27 11:21 24.42060 54.66472 55 ft 19 kts 123°
2026-04-27 11:21 24.42046 54.66580 52 ft 12 kts 66°
2026-04-27 11:21 24.42054 54.66595 51 ft 0 kts 58°
2026-04-27 11:21 24.42062 54.66607 53 ft 4 kts 50°
2026-04-27 11:22 24.42092 54.66636 51 ft 8 kts 40°
2026-04-27 11:22 24.42154 54.66664 49 ft 11 kts
2026-04-27 11:22 24.42224 54.66631 53 ft 10 kts 308°
2026-04-27 11:22 24.42230 54.66624 53 ft 4 kts 308°
2026-04-27 11:23 24.42354 54.66448 51 ft 65 kts 307°
2026-04-27 11:23 24.42753 54.65883 56 ft 120 kts 308°
2026-04-27 11:23 24.43356 54.65030 58 ft 161 kts 308°
2026-04-27 11:23 24.44062 54.64025 481 ft 169 kts 307°
2026-04-27 11:24 24.44845 54.62940 770 ft 194 kts 310°
2026-04-27 11:24 24.45740 54.61742 1055 ft 211 kts 311°
2026-04-27 11:24 24.46705 54.60420 1333 ft 235 kts 310°
2026-04-27 11:24 24.47775 54.58913 1516 ft 260 kts 309°
2026-04-27 11:25 24.48842 54.57368 2384 ft 249 kts 310°
2026-04-27 11:25 24.49891 54.55854 3294 ft 248 kts 309°
2026-04-27 11:25 24.50949 54.54347 4196 ft 249 kts 309°
2026-04-27 11:25 24.52016 54.52837 5081 ft 251 kts 309°
2026-04-27 11:26 24.53094 54.51318 5961 ft 253 kts 308°
2026-04-27 11:26 24.54177 54.49789 6826 ft 254 kts 308°
2026-04-27 11:26 24.55267 54.48251 7530 ft 261 kts 308°
2026-04-27 11:26 24.56390 54.46664 8075 ft 266 kts 308°
2026-04-27 11:27 24.57516 54.45072 8185 ft 262 kts 308°
2026-04-27 11:27 24.58636 54.43487 8293 ft 263 kts 308°
2026-04-27 11:27 24.59761 54.41893 8395 ft 264 kts 308°
2026-04-27 11:27 24.60887 54.40299 8509 ft 263 kts 308°
2026-04-27 11:28 24.62012 54.38709 8614 ft 263 kts 308°
2026-04-27 11:28 24.63157 54.37134 8717 ft 264 kts 311°
2026-04-27 11:28 24.64485 54.35739 8811 ft 265 kts 320°
2026-04-27 11:28 24.65991 54.34556 8916 ft 266 kts 323°
2026-04-27 11:29 24.67502 54.33407 9218 ft 269 kts 323°
2026-04-27 11:29 24.69041 54.32223 10039 ft 269 kts 322°
2026-04-27 11:29 24.70610 54.31013 10500 ft 286 kts 322°
2026-04-27 11:29 24.72306 54.29700 10724 ft 309 kts 322°
2026-04-27 11:30 24.74121 54.28297 11090 ft 324 kts 322°
2026-04-27 11:30 24.75984 54.26861 11728 ft 330 kts 322°
2026-04-27 11:30 24.77882 54.25401 12374 ft 335 kts 322°
2026-04-27 11:30 24.79810 54.23916 13010 ft 341 kts 322°
2026-04-27 11:31 24.81771 54.22403 13621 ft 348 kts 322°
2026-04-27 11:31 24.83768 54.20861 14220 ft 351 kts 322°
2026-04-27 11:31 24.85776 54.19311 14857 ft 354 kts 322°
2026-04-27 11:31 24.87781 54.17761 15446 ft 358 kts 321°
2026-04-27 11:32 24.89831 54.16172 16056 ft 361 kts 320°
2026-04-27 11:32 24.91762 54.14395 16657 ft 362 kts 313°
2026-04-27 11:32 24.93482 54.12362 17217 ft 365 kts 308°
2026-04-27 11:32 24.95178 54.10251 17793 ft 369 kts 309°
2026-04-27 11:33 24.96894 54.08130 18341 ft 373 kts 309°
2026-04-27 11:33 24.98624 54.05996 18928 ft 373 kts 308°
2026-04-27 11:33 25.00347 54.03870 19514 ft 374 kts 308°
2026-04-27 11:33 25.02101 54.01704 20083 ft 376 kts 308°
2026-04-27 11:34 25.03849 53.99542 20639 ft 378 kts 308°
2026-04-27 11:34 25.05602 53.97374 21208 ft 379 kts 308°
2026-04-27 11:34 25.07339 53.95223 21755 ft 381 kts 308°
2026-04-27 11:34 25.09107 53.93033 22295 ft 383 kts 308°
2026-04-27 11:35 25.10881 53.90834 22838 ft 385 kts 308°
2026-04-27 11:35 25.12663 53.88625 23406 ft 385 kts 308°
2026-04-27 11:35 25.14452 53.86406 23864 ft 387 kts 308°
2026-04-27 11:35 25.16245 53.84180 24290 ft 389 kts 307°
2026-04-27 11:36 25.18052 53.81936 24711 ft 391 kts 307°
2026-04-27 11:36 25.19850 53.79672 25126 ft 392 kts 305°
2026-04-27 11:36 25.21461 53.77247 25524 ft 391 kts 299°
2026-04-27 11:36 25.22857 53.74669 25920 ft 392 kts 297°
2026-04-27 11:37 25.24242 53.72060 26346 ft 393 kts 297°
2026-04-27 11:37 25.25616 53.69490 26732 ft 395 kts 297°
2026-04-27 11:37 25.27019 53.66867 27102 ft 398 kts 297°
2026-04-27 11:37 25.28429 53.64228 27469 ft 400 kts 297°
2026-04-27 11:38 25.29844 53.61578 27889 ft 401 kts 297°
2026-04-27 11:38 25.31264 53.58914 28248 ft 402 kts 297°
2026-04-27 11:38 25.32686 53.56244 28595 ft 405 kts 297°
2026-04-27 11:38 25.34116 53.53556 28946 ft 407 kts 296°
2026-04-27 11:39 25.35554 53.50853 29281 ft 408 kts 296°
2026-04-27 11:39 25.36996 53.48140 29611 ft 411 kts 296°
2026-04-27 11:39 25.38444 53.45414 29931 ft 412 kts 296°
2026-04-27 11:39 25.39903 53.42668 30256 ft 413 kts 297°
2026-04-27 11:40 25.41357 53.39927 30591 ft 414 kts 297°
2026-04-27 11:40 25.42815 53.37178 30917 ft 414 kts 297°
2026-04-27 11:40 25.44271 53.34430 31323 ft 412 kts 297°
2026-04-27 11:40 25.45718 53.31699 31827 ft 408 kts 297°
2026-04-27 11:41 25.47145 53.29006 32355 ft 404 kts 297°
2026-04-27 11:41 25.48468 53.26293 32774 ft 399 kts 293°
2026-04-27 11:41 25.49556 53.23479 33144 ft 396 kts 288°
2026-04-27 11:41 25.50412 53.20585 33496 ft 394 kts 284°
2026-04-27 11:42 25.51047 53.17653 33839 ft 391 kts 282°
2026-04-27 11:42 25.51634 53.14745 34082 ft 391 kts 282°
2026-04-27 11:42 25.52238 53.11807 34264 ft 392 kts 282°
2026-04-27 11:42 25.52851 53.08831 34456 ft 392 kts 282°
2026-04-27 11:43 25.53457 53.05882 34639 ft 393 kts 282°
2026-04-27 11:43 25.54054 53.02966 34817 ft 393 kts 282°
2026-04-27 11:43 25.54656 53.00014 34985 ft 393 kts 282°
2026-04-27 11:43 25.55257 52.97064 35162 ft 394 kts 282°
2026-04-27 11:44 25.55884 52.94104 35332 ft 394 kts 284°
2026-04-27 11:44 25.56718 52.91205 35504 ft 396 kts 289°
2026-04-27 11:44 25.57791 52.88389 35688 ft 398 kts 293°
2026-04-27 11:44 25.59077 52.85677 35911 ft 398 kts 295°
2026-04-27 11:45 25.60402 52.82983 36084 ft 398 kts 295°
2026-04-27 11:45 25.61274 52.81197 36192 ft 398 kts 295°
2026-04-27 11:45 25.63033 52.77580 36405 ft 399 kts 295°
2026-04-27 11:45 25.64350 52.74872 36544 ft 400 kts 295°
2026-04-27 11:46 25.65669 52.72161 36687 ft 400 kts 295°
2026-04-27 11:46 25.66992 52.69441 36843 ft 400 kts 295°
2026-04-27 11:46 25.68312 52.66726 36998 ft 401 kts 295°
2026-04-27 11:46 25.69636 52.64003 37147 ft 401 kts 295°
2026-04-27 11:47 25.70961 52.61277 37289 ft 401 kts 295°
2026-04-27 11:47 25.71837 52.59472 37386 ft 402 kts 295°
2026-04-27 11:47 25.73166 52.56734 37534 ft 402 kts 295°
2026-04-27 11:47 25.74923 52.53111 37723 ft 402 kts 295°
2026-04-27 11:48 25.77137 52.48512 37803 ft 404 kts 294°
2026-04-27 11:48 25.79700 52.42980 37804 ft 402 kts 294°
2026-04-27 11:49 25.82236 52.37492 37802 ft 403 kts 294°
2026-04-27 11:49 25.84802 52.31958 37806 ft 402 kts 294°
2026-04-27 11:50 25.87364 52.26430 37807 ft 403 kts 294°
2026-04-27 11:50 25.89932 52.20890 37849 ft 403 kts 294°
2026-04-27 11:51 25.91217 52.18115 38009 ft 403 kts 294°
2026-04-27 11:51 25.92500 52.15344 38151 ft 403 kts 294°
2026-04-27 11:51 25.95047 52.09835 38383 ft 404 kts 294°
2026-04-27 11:52 25.96335 52.07049 38497 ft 404 kts 294°
2026-04-27 11:52 25.97617 52.04270 38604 ft 404 kts 293°
2026-04-27 11:52 25.98901 52.01488 38692 ft 404 kts 293°
2026-04-27 11:53 26.01468 51.95921 38893 ft 404 kts 293°
2026-04-27 11:53 26.02750 51.93137 39010 ft 403 kts 293°
2026-04-27 11:53 26.04008 51.90406 39158 ft 402 kts 293°
2026-04-27 11:54 26.06554 51.84863 39284 ft 403 kts 293°
2026-04-27 11:54 26.09103 51.79309 39307 ft 402 kts 293°
2026-04-27 11:55 26.11642 51.73777 39308 ft 401 kts 293°
2026-04-27 11:55 26.14185 51.68236 39307 ft 402 kts 293°
2026-04-27 11:56 26.16725 51.62695 39327 ft 402 kts 293°
2026-04-27 11:56 26.19249 51.57184 39305 ft 398 kts 292°
2026-04-27 11:57 26.21764 51.51680 39307 ft 399 kts 292°
2026-04-27 11:57 26.24268 51.46195 39307 ft 399 kts 292°
2026-04-27 11:58 26.26786 51.40672 39307 ft 399 kts 292°
2026-04-27 11:58 26.29561 51.35292 39302 ft 404 kts 300°
2026-04-27 11:59 26.32689 51.30121 39308 ft 397 kts 290°
2026-04-27 11:59 26.33571 51.27236 39307 ft 391 kts 278°
2026-04-27 11:59 26.33840 51.24241 39298 ft 388 kts 269°
2026-04-27 12:00 26.33403 51.18293 39298 ft 388 kts 262°
2026-04-27 12:00 26.32615 51.12345 39303 ft 388 kts 262°
2026-04-27 12:01 26.31833 51.06393 39303 ft 388 kts 262°
2026-04-27 12:01 26.31066 51.00416 39305 ft 388 kts 262°
2026-04-27 12:02 26.30307 50.94484 39311 ft 389 kts 262°
2026-04-27 12:02 26.29425 50.88522 39317 ft 389 kts 261°
2026-04-27 12:03 26.28485 50.82602 39323 ft 389 kts 261°
2026-04-27 12:03 26.27560 50.76675 39328 ft 389 kts 261°
2026-04-27 12:04 26.26662 50.70709 39333 ft 390 kts 263°
2026-04-27 12:04 26.26320 50.64682 39330 ft 390 kts 270°
2026-04-27 12:05 26.26719 50.58644 39309 ft 392 kts 276°
2026-04-27 12:05 26.27513 50.52638 39310 ft 392 kts 276°
2026-04-27 12:06 26.28286 50.46635 39303 ft 389 kts 276°
2026-04-27 12:06 26.29050 50.40697 39300 ft 387 kts 276°
2026-04-27 12:07 26.29807 50.34780 39304 ft 388 kts 276°
2026-04-27 12:07 26.30598 50.28840 39279 ft 387 kts 276°
2026-04-27 12:08 26.31454 50.22909 39274 ft 388 kts 277°
2026-04-27 12:08 26.32152 50.16958 39278 ft 386 kts 272°
2026-04-27 12:09 26.32181 50.10986 39278 ft 385 kts 268°
2026-04-27 12:09 26.32053 50.05001 39282 ft 386 kts 268°
2026-04-27 12:10 26.31930 49.99056 39288 ft 386 kts 268°
2026-04-27 12:10 26.31800 49.93077 39293 ft 386 kts 268°
2026-04-27 12:11 26.31668 49.87102 39285 ft 384 kts 268°
2026-04-27 12:11 26.31534 49.81191 39280 ft 381 kts 268°
2026-04-27 12:12 26.31397 49.75266 39280 ft 382 kts 268°
2026-04-27 12:12 26.31257 49.69340 39284 ft 383 kts 268°
2026-04-27 12:13 26.31116 49.63412 39300 ft 383 kts 268°
2026-04-27 12:13 26.30972 49.57480 39302 ft 383 kts 268°
2026-04-27 12:14 26.30825 49.51543 39301 ft 383 kts 268°
2026-04-27 12:14 26.30676 49.45609 39302 ft 383 kts 268°
2026-04-27 12:15 26.30525 49.39705 39305 ft 383 kts 268°
2026-04-27 12:15 26.30369 49.33762 39311 ft 384 kts 268°
2026-04-27 12:16 26.30211 49.27808 39316 ft 384 kts 268°
2026-04-27 12:16 26.30050 49.21859 39321 ft 384 kts 268°
2026-04-27 12:17 26.29888 49.15903 39323 ft 384 kts 268°
2026-04-27 12:17 26.29712 49.09972 39308 ft 380 kts 266°
2026-04-27 12:18 26.29271 49.04096 39309 ft 381 kts 265°
2026-04-27 12:18 26.28824 48.98216 39312 ft 380 kts 265°
2026-04-27 12:19 26.28377 48.92377 39311 ft 380 kts 265°
2026-04-27 12:19 26.27924 48.86505 39314 ft 380 kts 265°
2026-04-27 12:20 26.27468 48.80627 39315 ft 381 kts 265°
2026-04-27 12:20 26.27010 48.74746 39315 ft 381 kts 265°
2026-04-27 12:21 26.26548 48.68860 39318 ft 381 kts 265°
2026-04-27 12:21 26.26087 48.63016 39318 ft 381 kts 265°
2026-04-27 12:22 26.25613 48.57137 39326 ft 381 kts 263°
2026-04-27 12:22 26.24668 48.51321 39328 ft 382 kts 257°
2026-04-27 12:23 26.23042 48.45676 39331 ft 384 kts 251°
2026-04-27 12:23 26.21980 48.42942 39229 ft 386 kts 248°
2026-04-27 12:23 26.20838 48.40227 38993 ft 386 kts 248°
2026-04-27 12:23 26.19705 48.37517 38765 ft 385 kts 248°
2026-04-27 12:24 26.18593 48.34850 38547 ft 385 kts 248°
2026-04-27 12:24 26.17462 48.32142 38294 ft 386 kts 248°
2026-04-27 12:24 26.16331 48.29433 38032 ft 386 kts 248°
2026-04-27 12:24 26.15198 48.26727 37771 ft 385 kts 248°
2026-04-27 12:25 26.14065 48.24021 37517 ft 385 kts 248°
2026-04-27 12:25 26.12933 48.21320 37260 ft 385 kts 248°
2026-04-27 12:25 26.11828 48.18603 37006 ft 385 kts 251°
2026-04-27 12:25 26.10938 48.15803 36759 ft 383 kts 256°
2026-04-27 12:26 26.10273 48.12945 36521 ft 382 kts 258°
2026-04-27 12:26 26.09638 48.10078 36278 ft 382 kts 257°
2026-04-27 12:26 26.08995 48.07213 36040 ft 381 kts 257°
2026-04-27 12:26 26.08349 48.04354 35804 ft 381 kts 257°
2026-04-27 12:27 26.07703 48.01495 35573 ft 381 kts 257°
2026-04-27 12:27 26.07059 47.98646 35344 ft 379 kts 257°
2026-04-27 12:27 26.06416 47.95806 35118 ft 378 kts 257°
2026-04-27 12:27 26.05774 47.92971 34890 ft 379 kts 257°
2026-04-27 12:28 26.05131 47.90133 34669 ft 378 kts 257°
2026-04-27 12:28 26.04492 47.87315 34443 ft 378 kts 257°
2026-04-27 12:28 26.03850 47.84487 34220 ft 378 kts 257°
2026-04-27 12:28 26.03205 47.81648 33999 ft 377 kts 257°
2026-04-27 12:29 26.02562 47.78817 33769 ft 377 kts 257°
2026-04-27 12:29 26.01918 47.75989 33511 ft 377 kts 257°
2026-04-27 12:29 26.01273 47.73152 33254 ft 379 kts 257°
2026-04-27 12:29 26.00631 47.70335 33003 ft 381 kts 256°
2026-04-27 12:30 25.99980 47.67480 32751 ft 382 kts 256°
2026-04-27 12:30 25.99325 47.64611 32504 ft 384 kts 256°
2026-04-27 12:30 25.98667 47.61731 32259 ft 385 kts 256°
2026-04-27 12:30 25.98006 47.58843 31761 ft 388 kts 256°
2026-04-27 12:31 25.97335 47.55908 30985 ft 392 kts 255°
2026-04-27 12:31 25.96668 47.52996 30545 ft 385 kts 255°
2026-04-27 12:31 25.96010 47.50124 30005 ft 381 kts 255°
2026-04-27 12:31 25.95360 47.47292 29482 ft 375 kts 255°
2026-04-27 12:32 25.94719 47.44506 28984 ft 368 kts 255°
2026-04-27 12:32 25.94089 47.41772 28493 ft 362 kts 255°
2026-04-27 12:32 25.93467 47.39077 28012 ft 357 kts 255°
2026-04-27 12:32 25.92855 47.36426 27538 ft 352 kts 255°
2026-04-27 12:33 25.92251 47.33814 27392 ft 344 kts 255°
2026-04-27 12:33 25.91673 47.31308 27291 ft 332 kts 255°
2026-04-27 12:33 25.91109 47.28869 27031 ft 323 kts 255°
2026-04-27 12:33 25.90549 47.26456 26509 ft 322 kts 255°
2026-04-27 12:34 25.89990 47.24046 25976 ft 322 kts 255°
2026-04-27 12:34 25.89432 47.21641 25471 ft 321 kts 255°
2026-04-27 12:34 25.88875 47.19242 24992 ft 320 kts 255°
2026-04-27 12:34 25.88508 47.17660 24682 ft 319 kts 255°
2026-04-27 12:35 25.87950 47.15259 24114 ft 322 kts 255°
2026-04-27 12:35 25.87390 47.12855 23658 ft 321 kts 255°
2026-04-27 12:35 25.86833 47.10462 23204 ft 319 kts 255°
2026-04-27 12:35 25.86205 47.08105 22595 ft 320 kts 248°
2026-04-27 12:36 25.85103 47.05948 21952 ft 323 kts 234°
2026-04-27 12:36 25.83517 47.04173 21328 ft 326 kts 220°
2026-04-27 12:36 25.81533 47.02908 20718 ft 331 kts 206°
2026-04-27 12:36 25.79384 47.01986 20121 ft 331 kts 206°
2026-04-27 12:37 25.77236 47.01061 19531 ft 330 kts 206°
2026-04-27 12:37 25.75097 47.00132 18945 ft 330 kts 205°
2026-04-27 12:37 25.72974 46.99210 18579 ft 322 kts 205°
2026-04-27 12:37 25.70929 46.98327 18377 ft 310 kts 205°
2026-04-27 12:38 25.68941 46.97466 18059 ft 304 kts 205°
2026-04-27 12:38 25.66953 46.96600 17625 ft 309 kts 205°
2026-04-27 12:38 25.64956 46.95732 17173 ft 307 kts 205°
2026-04-27 12:38 25.62976 46.94874 16723 ft 304 kts 205°
2026-04-27 12:39 25.61019 46.94028 16276 ft 300 kts 205°
2026-04-27 12:39 25.59069 46.93183 15834 ft 302 kts 205°
2026-04-27 12:39 25.57147 46.92350 15394 ft 300 kts 205°
2026-04-27 12:39 25.55207 46.91511 14951 ft 298 kts 205°
2026-04-27 12:40 25.53269 46.90672 14508 ft 299 kts 205°
2026-04-27 12:40 25.51329 46.89832 14111 ft 298 kts 205°
2026-04-27 12:40 25.49418 46.89006 13828 ft 294 kts 205°
2026-04-27 12:40 25.47507 46.88175 13472 ft 295 kts 204°
2026-04-27 12:41 25.45598 46.87349 13066 ft 294 kts 204°
2026-04-27 12:41 25.43698 46.86528 12676 ft 292 kts 204°
2026-04-27 12:41 25.41813 46.85715 12228 ft 293 kts 204°
2026-04-27 12:41 25.39886 46.84882 11610 ft 298 kts 204°
2026-04-27 12:42 25.37982 46.84059 11022 ft 297 kts 203°
2026-04-27 12:42 25.36061 46.83231 10430 ft 295 kts 203°
2026-04-27 12:42 25.34176 46.82418 10126 ft 283 kts 203°
2026-04-27 12:42 25.32393 46.81652 9985 ft 266 kts 203°
2026-04-27 12:43 25.30715 46.80932 9777 ft 253 kts 203°
2026-04-27 12:43 25.29097 46.80235 9391 ft 247 kts 203°
2026-04-27 12:43 25.27484 46.79538 9020 ft 250 kts 203°
2026-04-27 12:43 25.26017 46.78575 8649 ft 242 kts 225°
2026-04-27 12:44 25.25099 46.77066 8305 ft 235 kts 248°
2026-04-27 12:44 25.24852 46.75324 7968 ft 234 kts 271°
2026-04-27 12:44 25.25070 46.73507 7636 ft 235 kts 274°
2026-04-27 12:44 25.25289 46.71750 7321 ft 234 kts 274°
2026-04-27 12:45 25.25501 46.69954 7120 ft 237 kts 274°
2026-04-27 12:45 25.25713 46.68149 7007 ft 235 kts 274°
2026-04-27 12:45 25.25916 46.66384 6877 ft 231 kts 274°
2026-04-27 12:45 25.26125 46.64604 6784 ft 235 kts 274°
2026-04-27 12:46 25.26339 46.62818 6653 ft 234 kts 274°
2026-04-27 12:46 25.26545 46.61034 6472 ft 236 kts 274°
2026-04-27 12:46 25.26754 46.59231 6188 ft 234 kts 274°
2026-04-27 12:46 25.26958 46.57465 6104 ft 234 kts 273°
2026-04-27 12:47 25.27121 46.55673 6014 ft 231 kts 262°
2026-04-27 12:47 25.26673 46.54061 5954 ft 215 kts 233°
2026-04-27 12:47 25.25610 46.52964 5904 ft 211 kts 207°
2026-04-27 12:47 25.24221 46.52552 5718 ft 207 kts 180°
2026-04-27 12:48 25.22818 46.52879 5408 ft 208 kts 164°
2026-04-27 12:48 25.21467 46.53379 5175 ft 203 kts 164°
2026-04-27 12:48 25.20154 46.53858 5099 ft 191 kts 165°
2026-04-27 12:48 25.18933 46.54298 5046 ft 189 kts 165°
2026-04-27 12:49 25.17661 46.54729 5012 ft 189 kts 165°
2026-04-27 12:49 25.16438 46.55270 5008 ft 192 kts 158°
2026-04-27 12:49 25.15239 46.55953 5004 ft 192 kts 154°
2026-04-27 12:49 25.14090 46.56679 5003 ft 190 kts 153°
2026-04-27 12:50 25.12968 46.57393 4999 ft 176 kts 153°
2026-04-27 12:50 25.11976 46.58027 5002 ft 159 kts 154°
2026-04-27 12:50 25.11050 46.58615 4988 ft 150 kts 154°
2026-04-27 12:50 25.10155 46.59184 4881 ft 148 kts 154°
2026-04-27 12:51 25.09273 46.59745 4690 ft 145 kts 153°
2026-04-27 12:51 25.08390 46.60308 4509 ft 147 kts 153°
2026-04-27 12:51 25.07514 46.60865 4323 ft 143 kts 154°
2026-04-27 12:51 25.06654 46.61412 4140 ft 143 kts 153°
2026-04-27 12:52 25.05795 46.61959 3961 ft 143 kts 154°
2026-04-27 12:52 25.04932 46.62509 3777 ft 143 kts 154°
2026-04-27 12:52 25.04072 46.63056 3594 ft 142 kts 154°
2026-04-27 12:52 25.03226 46.63595 3373 ft 141 kts 154°
2026-04-27 12:53 25.01572 46.64673 3047 ft 140 kts 155°
2026-04-27 12:53 25.00716 46.65194 2851 ft 138 kts 154°
2026-04-27 12:53 24.99869 46.65700 2717 ft 141 kts 153°
2026-04-27 12:54 24.98996 46.66275 2479 ft 150 kts 151°
2026-04-27 12:54 24.98072 46.66850 2354 ft 152 kts 155°
2026-04-27 12:54 24.97134 46.67427 2195 ft 154 kts 151°
2026-04-27 12:54 24.96230 46.68026 2056 ft 148 kts 155°
2026-04-27 12:55 24.95434 46.68508 2034 ft 105 kts 148°
2026-04-27 12:55 24.94998 46.68841 2031 ft 53 kts 119°
2026-04-27 12:55 24.94972 46.69050 2027 ft 0 kts 76°
2026-04-27 12:57 24.94973 46.69055 2029 ft 2 kts 76°
2026-04-27 12:57 24.94980 46.69082 2032 ft 5 kts 71°
2026-04-27 12:57 24.95000 46.69128 2030 ft 8 kts 64°
2026-04-27 12:57 24.95030 46.69192 2034 ft 11 kts 61°
2026-04-27 12:58 24.95073 46.69274 2034 ft 14 kts 59°
2026-04-27 12:58 24.95130 46.69373 2037 ft 17 kts 57°
2026-04-27 12:58 24.95182 46.69474 2030 ft 9 kts 63°
2026-04-27 12:58 24.95229 46.69534 2033 ft 12 kts 30°
2026-04-27 12:59 24.95316 46.69566 2032 ft 15 kts 14°
2026-04-27 12:59 24.95399 46.69626 2032 ft 15 kts 69°
2026-04-27 12:59 24.95402 46.69712 2029 ft 9 kts 51°
2026-04-27 12:59 24.95464 46.69712 2034 ft 0 kts 343°
2026-04-27 13:00 24.95471 46.69709 2029 ft 0 kts 343°
2026-04-27 13:00 24.95475 46.69708 2029 ft 0 kts 343°